Location: Newark
(44.3100°N, 0.7769°W)
Time: 21:39:36
(UTC+00:00)

Envisat - Pass Details

Date: 24 November 2019
Orbit: 764 x 766 km, 98.1° (Epoch: 13 December)

Event Time Altitude Azimuth Distance (km) Brightness Sun altitude
Rises 19:09:44 0° 204° (SSW) 3,219 6.6 -28.3°
Reaches altitude 10° 19:12:37 10° 221° (SW) 2,299 5.9 -28.9°
Maximum altitude 19:16:19 20° 268° (W) 1,704 5.5 -29.5°
Drops below altitude 10° 19:20:03 10° 316° (NW) 2,310 6.0 -30.2°
Sets 19:22:58 0° 333° (NNW) 3,242 6.6 -30.7°
